Regional Weather Roundup
Issued by NWS Newport/Morehead, NC

Current Version | Previous Version | Text Only | Print | Product List | Glossary On
Versions: 1 2 3 4 5 6 7 8 9 10 11 12 13 14 15 16 17 18 19 20 21 22 23 24 25 26 27 28 29 30 31 32 33 34 35 36 37 38 39 40 41 42 43 44 45 46 47 48 49 50
000 ASUS42 KMHX 311610 RWRMHX WEATHER ROUNDUP FOR EASTERN NORTH CAROLINA NATIONAL WEATHER SERVICE NEWPORT/MOREHEAD CITY NC 1200 PM EDT THU JUL 31 2014 NOTE: "FAIR" INDICATES FEW OR NO CLOUDS BELOW 12,000 FEET WITH NO SIGNIFICANT WEATHER AND/OR OBSTRUCTIONS TO VISIBILITY NCZ015>017-031-032-045>047-102-103-311700- NORTH COAST CITY SKY/WX TMP DP RH WIND PRES REMARKS EDENTON MOSUNNY 81 65 57 S5 30.15S ELIZABETH CITY MOSUNNY 81 65 58 E9 30.15S KITTY HAWK PTSUNNY 79 63 57 E3 30.14S MANTEO NOT AVBL $$ NCZ045>047-081-094-103-104-311700- CENTRAL COAST CITY SKY/WX TMP DP RH WIND PRES REMARKS FRISCO MOSUNNY 85 61 44 VRB7 30.14S SWANQUARTER N/A 82 N/A N/A E7 30.09S $$ NCZ095-097-098-100-101-311700- SOUTHERN COAST CITY SKY/WX TMP DP RH WIND PRES REMARKS BEAUFORT PTSUNNY 84 67 56 E10 30.13S CEDAR ISLAND N/A 82 N/A N/A NE9 30.18S JACKSONVILLE PTSUNNY 83 67 58 E9 30.12S NEWPORT NOT AVBL PINEY ISLAND MOSUNNY 83 69 62 E13 30.13S WILMINGTON MOSUNNY 84 68 58 E12G21 30.11S $$ NCZ011>013-027>030-043-044-078>080-089-090>093-098-311700- COASTAL PLAIN CITY SKY/WX TMP DP RH WIND PRES REMARKS AHOSKIE SUNNY 80 63 57 E3 30.15S CLINTON CLOUDY 83 69 64 SE5 30.13S ELIZABETHTOWN CLOUDY 82 68 62 E6 30.11F GOLDSBORO CLOUDY 82 70 68 E9 30.12S GREENVILLE PTSUNNY 82 66 57 S6 30.15F HAVELOCK PTSUNNY 83 67 58 E12 30.13F KENANSVILLE PTSUNNY 81 65 59 E5 30.14S KINSTON PTSUNNY 82 66 57 SE7 30.14F NEW BERN MOSUNNY 85 65 51 E8 30.14S RICHLANDS PTSUNNY 84 64 51 SE9 30.13S ROANOKE RAPIDS NOT AVBL ROCKY MOUNT CLOUDY 80 67 64 VRB5 30.15S WASHINGTON PTSUNNY 80 65 59 SE9 30.15S WHITEVILLE CLOUDY 84 68 57 E7 30.10S $$ AMZ130-135-150-152-154-156-158-170-250-252-270-ANZ085-086-088-633-658-670-311700- MARINE OBSERVATIONS STATION/POSITION TIME TEMP WIND PRES WAVE SWELL AIR SEA DIR/SP/G HT/PER HT/PER (UTC) (F) (DEG/KT/KT) (MB) (FT/S) (FT/S) CHESAPEAKE LIGHT NOT AVBL BUOY 44014 1600 79 79 CALM / 2 1020.8 3/ 7 3/ 7 DUCK 1600 80 76 120/ 4/ 5 1020.4 2E DUCK 1600 N/A 3/ 7 OREGON INLET 1600 78 78 40/ 6/ 7 1020.8 BUOY 44095 1600 78 N/A 3/ 7 20E OREGON INLET NOT AVBL HATTERAS CG 1600 81 79 90/ 5/ 9 1021.0 DIAMOND BUOY 1600 VRB 8/ 12 1020.2 4/ 7 3/ 7 CAPE LOOKOUT 1500 80 80/ 12/ 13 1020.0 BEAUFORT LAB 1600 81 81 100/ 10/ 14 1019.7 30 SE NEW RIVER 1600 80 81 90/ 12/ 16 1019.8 4/ 7 2/ 7 5 SE WRIGHTSVILL 1500 78 81 90/ 14/ 17 N/A BUOY 41002 1518 77 81 190/ 12/ 14 1018.9 4/ 6 3/ 6 BUOY 41004 1600 83 83 80/ 17/ 19 1016.5 3/ 4 2/ 8 $$

USA.gov is the U.S. government's official web portal to all federal, state and local government web resources and services.